< < Back
Terminal Aerodrome Forecast


Current Version              Previous Versions:   1  2  3  4  5  6  7  8  9  

Terminal Aerodrome Forecast

566
FTUS42 KTAE 120520
TAFDHN
TAF
KDHN 120520Z 1206/1306 24008KT P6SM BKN006
      TEMPO 1206/1210 SCT008 BKN011
     FM121000 24005KT 3SM BR BKN006
     FM121600 24013G23KT P6SM SCT025=

Latest METAR

600
SAUS70 KWBC 120900 RRK
MTRDHN
METAR KDHN 120853Z AUTO 24008KT 10SM OVC005 14/13 A3017 RMK AO2 SLP214
T01390133 55004 TSNO $


USA.gov is the U.S. government's official web portal to all federal, state and local government web resources and services.